Weather History for LTAC - March, 2013

Change the Weather History Date:

Tuesday, March 26, 2013

  Actual Average Record
Temperature  
Mean Temperature 50 °F -  
Max Temperature 56 °F 57 °F 77 °F (2001)
Min Temperature 43 °F 34 °F 19 °F (1999)
Degree Days  
Heating Degree Days 16    
Moisture  
Dew Point 38 °F    
Average Humidity 64    
Maximum Humidity 93    
Minimum Humidity 27    
Precipitation  
Precipitation 0.00 in - - ()
Sea Level Pressure  
Sea Level Pressure 29.75 in    
Wind  
Wind Speed 5 mph ()    
Max Wind Speed 17 mph    
Max Gust Speed 26 mph    
Visibility 6.4 miles    
Events Rain    
Averages and records for this station are not official NWS values.
T = Trace of Precipitation, MM = Missing Value Source: Averaged Metar Reports

Daily Weather History Graph

Daily Weather History Graph

Search for Another Location

Airport or City:

Trip Planner

Search our weather history database for the weather conditions in past years. The results will help you decide how hot, cold, wet, or windy it might be!

Date:

Astronomy

Mar. 26, 2013 Rise Set
Actual Time 5:41 AM EET 6:06 PM EET
Civil Twilight 5:14 AM EET 6:33 PM EET
Nautical Twilight 4:42 AM EET 7:05 PM EET
Astronomical Twilight 4:10 AM EET 7:38 PM EET
Moon 5:20 PM EET (3/26) 4:47 AM EET (3/26)
Length of Visible Light 13h 18m
Length of Day
12h 24m
Waxing Gibbous, 99% of the Moon is Illuminated
Mar 26
Waxing Gibbous
Mar 27
Full
Apr 3
Last Quarter
Apr 10
New
Apr 18
First Quarter

Hourly Weather History & Observations

Time (EET) Temp. Windchill Dew Point Humidity Pressure Visibility Wind Dir Wind Speed Gust Speed Precip Events Conditions
12:20 AM 46.4 °F 43.5 °F 39.2 °F 76% 29.92 in 6.2 mi ESE 5.8 mph - N/A   Mostly Cloudy
12:50 AM 44.6 °F - 41.0 °F 87% 29.92 in 6.2 mi Variable 1.2 mph - N/A   Mostly Cloudy
1:20 AM 46.4 °F - 39.2 °F 76% 29.92 in 6.2 mi Variable 2.3 mph - N/A   Mostly Cloudy
1:50 AM 44.6 °F 43.1 °F 41.0 °F 87% 29.92 in 6.2 mi SW 3.5 mph - N/A   Mostly Cloudy
2:00 AM 45 °F - 41 °F 81% 29.90 in 6 mi SW 3.5 mph - -   Partly Cloudy
2:20 AM 46.4 °F - 41.0 °F 81% 29.92 in 6.2 mi Variable 1.2 mph - N/A Rain Light Rain Showers
2:50 AM 46.4 °F 43.5 °F 42.8 °F 87% 29.89 in 6.2 mi East 5.8 mph - N/A Rain Light Rain Showers
3:20 AM 44.6 °F 42.2 °F 42.8 °F 93% 29.89 in 6.2 mi NNE 4.6 mph - N/A Rain Light Rain Showers
3:50 AM 46.4 °F 42.4 °F 42.8 °F 87% 29.86 in 6.2 mi ENE 8.1 mph - N/A Rain Light Rain Showers
4:20 AM 44.6 °F 40.7 °F 42.8 °F 93% 29.83 in 6.2 mi NNW 6.9 mph - N/A   Mostly Cloudy
4:50 AM 44.6 °F 43.1 °F 42.8 °F 93% 29.83 in 6.2 mi North 3.5 mph - N/A   Mostly Cloudy
5:20 AM 44.6 °F 43.1 °F 42.8 °F 93% 29.83 in 6.2 mi NNW 3.5 mph - N/A   Mostly Cloudy
5:50 AM 44.6 °F - 42.8 °F 93% 29.80 in 6.2 mi Variable 2.3 mph - N/A   Mostly Cloudy
6:20 AM 44.6 °F 42.2 °F 42.8 °F 93% 29.83 in 6.2 mi SE 4.6 mph - N/A   Mostly Cloudy
6:50 AM 46.4 °F 42.9 °F 41.0 °F 81% 29.80 in 6.2 mi East 6.9 mph - N/A   Mostly Cloudy
7:20 AM 44.6 °F 42.2 °F 42.8 °F 93% 29.80 in 6.2 mi NW 4.6 mph - N/A   Mostly Cloudy
7:50 AM 46.4 °F 42.9 °F 42.8 °F 87% 29.80 in 6.2 mi North 6.9 mph - N/A   Mostly Cloudy
8:00 AM 47 °F - 42 °F 76% 29.80 in 12 mi North 6.9 mph - -   Partly Cloudy
8:20 AM 48.2 °F - 41.0 °F 76% 29.80 in 6.2 mi WNW 6.9 mph - N/A   Mostly Cloudy
8:50 AM 48.2 °F - 42.8 °F 82% 29.80 in 6.2 mi Variable 5.8 mph - N/A   Mostly Cloudy
9:20 AM 48.2 °F - 44.6 °F 87% 29.80 in 6.2 mi North 4.6 mph - N/A   Mostly Cloudy
9:50 AM 50.0 °F - 42.8 °F 76% 29.80 in 6.2 mi NE 4.6 mph - N/A   Mostly Cloudy
10:20 AM 51.8 °F - 44.6 °F 76% 29.80 in 6.2 mi ENE 6.9 mph - N/A   Mostly Cloudy
10:50 AM 51.8 °F - 42.8 °F 71% 29.77 in 6.2 mi NE 3.5 mph - N/A   Mostly Cloudy
11:20 AM 51.8 °F - 42.8 °F 71% 29.80 in 6.2 mi SW 4.6 mph - N/A   Mostly Cloudy
11:50 AM 53.6 °F - 44.6 °F 72% 29.77 in 6.2 mi NNW 5.8 mph - N/A   Mostly Cloudy
12:20 PM 53.6 °F - 42.8 °F 67% 29.74 in 6.2 mi NW 3.5 mph - N/A   Mostly Cloudy
12:50 PM 53.6 °F - 41.0 °F 62% 29.74 in 6.2 mi NNE 6.9 mph - N/A   Mostly Cloudy
1:20 PM 55.4 °F - 41.0 °F 58% 29.71 in 6.2 mi NE 6.9 mph - N/A   Mostly Cloudy
1:50 PM 55.4 °F - 37.4 °F 51% 29.71 in 6.2 mi East 4.6 mph - N/A   Mostly Cloudy
2:00 PM 56 °F - 39 °F 41% 29.69 in 12 mi East 4.6 mph - -   Partly Cloudy
2:20 PM 55.4 °F - 37.4 °F 51% 29.68 in 6.2 mi SE 9.2 mph - N/A   Mostly Cloudy
2:50 PM 55.4 °F - 33.8 °F 44% 29.68 in 6.2 mi SE 10.4 mph - N/A   Mostly Cloudy
3:20 PM 55.4 °F - 28.4 °F 36% 29.68 in 6.2 mi East 5.8 mph - N/A   Mostly Cloudy
3:50 PM 55.4 °F - 30.2 °F 38% 29.68 in 6.2 mi South 5.8 mph - N/A   Mostly Cloudy
4:20 PM 55.4 °F - 32.0 °F 41% 29.68 in 6.2 mi Variable 2.3 mph - N/A   Mostly Cloudy
4:50 PM 55.4 °F - 33.8 °F 44% 29.65 in 6.2 mi Variable 1.2 mph - N/A   Mostly Cloudy
5:20 PM 53.6 °F - 32.0 °F 44% 29.65 in 6.2 mi North 4.6 mph - N/A   Mostly Cloudy
5:50 PM 55.4 °F - 28.4 °F 36% 29.65 in 6.2 mi SW 4.6 mph - N/A   Mostly Cloudy
6:20 PM 55.4 °F - 32.0 °F 41% 29.65 in 6.2 mi SSW 12.7 mph - N/A Rain Light Rain
6:29 PM 55.4 °F - 33.8 °F 44% 29.65 in 6.2 mi South 12.7 mph - N/A   Mostly Cloudy
6:50 PM 55.4 °F - 33.8 °F 44% 29.65 in 6.2 mi SSE 17.3 mph - N/A   Mostly Cloudy
7:20 PM 53.6 °F - 33.8 °F 47% 29.65 in 6.2 mi SE 13.8 mph - N/A   Mostly Cloudy
7:50 PM 55.4 °F - 30.2 °F 38% 29.62 in 6.2 mi South 15.0 mph 26.5 mph N/A   Mostly Cloudy
8:00 PM 55 °F - 31 °F 27% 29.62 in 6 mi South 15.0 mph - -   Partly Cloudy
8:20 PM 55.4 °F - 32.0 °F 41% 29.62 in 6.2 mi SE 12.7 mph - N/A   Mostly Cloudy
8:50 PM 55.4 °F - 28.4 °F 36% 29.62 in 6.2 mi South 15.0 mph - N/A   Mostly Cloudy
9:20 PM 53.6 °F - 30.2 °F 41% 29.62 in 6.2 mi SSW 6.9 mph - N/A   Mostly Cloudy
9:50 PM 53.6 °F - 32.0 °F 44% 29.65 in 6.2 mi South 6.9 mph - N/A   Mostly Cloudy
10:20 PM 51.8 °F - 33.8 °F 50% 29.62 in 6.2 mi SSE 10.4 mph - N/A   Mostly Cloudy
10:50 PM 50.0 °F - 33.8 °F 54% 29.62 in 6.2 mi SSW 8.1 mph - N/A   Mostly Cloudy
11:20 PM 50.0 °F - 33.8 °F 54% 29.62 in 6.2 mi South 9.2 mph - N/A   Mostly Cloudy
11:50 PM 50.0 °F - 33.8 °F 54% 29.65 in 6.2 mi South 9.2 mph - N/A   Mostly Cloudy